| time (UTC) | temp F | wind direction | speed MPH | gust MPH | rain 1hr in | rain 24hr in | rain mn in | humidity % | barometer mb |
| 20260504151030 | 56 | 284 | 4.0 | 14.0 | 0.00 | 0.00 | 0.00 | 59 | 1015.2 |
| 20260504150535 | 56 | 284 | 6.0 | 14.0 | 0.00 | 0.00 | 0.00 | 58 | 1015.1 |
| 20260504141031 | 55 | 296 | 3.0 | 11.0 | 0.00 | 0.00 | 0.00 | 56 | 1015.2 |
| 20260504140534 | 55 | 286 | 3.0 | 11.0 | 0.00 | 0.00 | 0.00 | 56 | 1015.3 |
| 20260504130534 | 55 | 288 | 3.0 | 9.0 | 0.00 | 0.00 | 0.00 | 57 | 1015.4 |
| 20260504110534 | 52 | 277 | 5.0 | 11.0 | 0.00 | 0.00 | 0.00 | 61 | 1015.7 |
| 20260504100531 | 51 | 302 | 4.0 | 9.0 | 0.00 | 0.00 | 0.00 | 64 | 1015.7 |
| 20260504081546 | 50 | 260 | 4.0 | 8.0 | 0.00 | 0.00 | 0.00 | 73 | 1015.5 |
| 20260504081031 | 50 | 296 | 3.0 | 8.0 | 0.00 | 0.00 | 0.00 | 73 | 1015.4 |
| 20260504080531 | 50 | 291 | 3.0 | 9.0 | 0.00 | 0.00 | 0.00 | 73 | 1015.5 |
| 20260504050533 | 45 | 0 | 0.0 | 0.0 | 0.00 | 0.00 | 0.00 | 85 | 1014.4 |
| 20260504045531 | 45 | 283 | 0.0 | 0.0 | 0.00 | 0.03 | 0.00 | 84 | 1014.4 |
| 20260504045035 | 45 | 0 | 0.0 | 0.0 | 0.00 | 0.03 | 0.00 | 84 | 1014.4 |
| 20260504044543 | 45 | 0 | 0.0 | 0.0 | 0.00 | 0.03 | 0.00 | 84 | 1014.5 |
| 20260504044035 | 45 | 0 | 0.0 | 0.0 | 0.00 | 0.03 | 0.00 | 84 | 1014.5 |
| 20260504043532 | 45 | 0 | 0.0 | 0.0 | 0.00 | 0.03 | 0.00 | 84 | 1014.5 |
| 20260504043041 | 46 | 0 | 0.0 | 0.0 | 0.00 | 0.03 | 0.00 | 84 | 1014.4 |
| 20260504042532 | 46 | 0 | 0.0 | 0.0 | 0.00 | 0.03 | 0.00 | 84 | 1014.5 |
| 20260504042031 | 46 | 0 | 0.0 | 1.0 | 0.00 | 0.03 | 0.00 | 84 | 1014.5 |
| 20260504041537 | 46 | 0 | 0.0 | 1.0 | 0.00 | 0.03 | 0.00 | 83 | 1014.5 |
| 20260504041031 | 46 | 0 | 0.0 | 1.0 | 0.00 | 0.03 | 0.00 | 83 | 1014.5 |
| 20260504040531 | 46 | 0 | 0.0 | 1.0 | 0.00 | 0.03 | 0.00 | 83 | 1014.5 |
| 20260504040039 | 46 | 0 | 0.0 | 1.0 | 0.00 | 0.03 | 0.00 | 83 | 1014.5 |
| 20260504035532 | 47 | 0 | 0.0 | 1.0 | 0.00 | 0.08 | 0.00 | 83 | 1014.5 |
| 20260504035032 | 47 | 0 | 0.0 | 1.0 | 0.00 | 0.08 | 0.00 | 83 | 1014.6 |
| 20260504034537 | 47 | 283 | 0.0 | 2.0 | 0.00 | 0.08 | 0.00 | 83 | 1014.6 |
| 20260504034031 | 47 | 285 | 0.0 | 2.0 | 0.00 | 0.08 | 0.00 | 83 | 1014.6 |
| 20260504033531 | 47 | 281 | 1.0 | 2.0 | 0.00 | 0.08 | 0.00 | 83 | 1014.7 |
| 20260504033043 | 47 | 279 | 1.0 | 2.0 | 0.00 | 0.08 | 0.00 | 83 | 1014.6 |
| 20260504032533 | 47 | 289 | 0.0 | 2.0 | 0.00 | 0.08 | 0.00 | 83 | 1014.5 |
| 20260504032031 | 47 | 297 | 0.0 | 2.0 | 0.00 | 0.08 | 0.00 | 82 | 1014.6 |
| 20260504031541 | 47 | 297 | 0.0 | 2.0 | 0.00 | 0.08 | 0.00 | 82 | 1014.6 |
| 20260504031030 | 47 | 0 | 0.0 | 2.0 | 0.00 | 0.08 | 0.00 | 82 | 1014.7 |
| 20260504030531 | 47 | 283 | 1.0 | 3.0 | 0.00 | 0.08 | 0.00 | 82 | 1014.6 |
| 20260504030043 | 47 | 288 | 1.0 | 3.0 | 0.00 | 0.08 | 0.00 | 82 | 1014.5 |
| 20260504025531 | 47 | 284 | 1.0 | 2.0 | 0.00 | 0.11 | 0.00 | 82 | 1014.6 |
| 20260504025031 | 47 | 349 | 0.0 | 2.0 | 0.00 | 0.11 | 0.00 | 82 | 1014.4 |
| 20260504024549 | 47 | 13 | 0.0 | 1.0 | 0.00 | 0.11 | 0.00 | 82 | 1014.5 |
| 20260504024033 | 47 | 13 | 0.0 | 1.0 | 0.00 | 0.11 | 0.00 | 82 | 1014.5 |
| 20260504023531 | 47 | 0 | 0.0 | 1.0 | 0.00 | 0.11 | 0.00 | 82 | 1014.5 |
| 20260504023043 | 47 | 0 | 0.0 | 1.0 | 0.00 | 0.11 | 0.00 | 82 | 1014.5 |
| 20260504022533 | 47 | 0 | 0.0 | 1.0 | 0.00 | 0.11 | 0.00 | 82 | 1014.4 |
| 20260504022033 | 47 | 0 | 0.0 | 1.0 | 0.00 | 0.11 | 0.00 | 82 | 1014.3 |
| 20260504021538 | 47 | 0 | 0.0 | 0.0 | 0.00 | 0.11 | 0.00 | 82 | 1014.4 |
| 20260504021032 | 47 | 0 | 0.0 | 0.0 | 0.00 | 0.11 | 0.00 | 82 | 1014.4 |
| 20260504020531 | 47 | 0 | 0.0 | 1.0 | 0.00 | 0.11 | 0.00 | 82 | 1014.4 |
| 20260504020057 | 47 | 0 | 0.0 | 1.0 | 0.00 | 0.11 | 0.00 | 82 | 1014.4 |
| 20260504015532 | 47 | 0 | 0.0 | 0.0 | 0.00 | 0.14 | 0.00 | 82 | 1014.4 |
| 20260504015031 | 47 | 0 | 0.0 | 0.0 | 0.00 | 0.14 | 0.00 | 82 | 1014.3 |
| 20260504014554 | 47 | 0 | 0.0 | 0.0 | 0.00 | 0.14 | 0.00 | 83 | 1014.4 |
| 20260504014031 | 47 | 0 | 0.0 | 0.0 | 0.00 | 0.14 | 0.00 | 83 | 1014.5 |
| 20260504013531 | 47 | 0 | 0.0 | 0.0 | 0.00 | 0.14 | 0.00 | 83 | 1014.3 |
| 20260504013055 | 47 | 0 | 0.0 | 0.0 | 0.00 | 0.14 | 0.00 | 83 | 1014.3 |
| 20260504012531 | 47 | 0 | 0.0 | 0.0 | 0.00 | 0.14 | 0.00 | 83 | 1014.4 |
| 20260504012030 | 47 | 0 | 0.0 | 0.0 | 0.00 | 0.14 | 0.00 | 83 | 1014.3 |
| 20260504011545 | 47 | 0 | 0.0 | 0.0 | 0.00 | 0.14 | 0.00 | 83 | 1014.3 |
| 20260504011030 | 47 | 0 | 0.0 | 0.0 | 0.00 | 0.14 | 0.00 | 83 | 1014.3 |
| 20260504010533 | 47 | 0 | 0.0 | 0.0 | 0.00 | 0.14 | 0.00 | 83 | 1014.3 |
| 20260504010045 | 47 | 0 | 0.0 | 0.0 | 0.00 | 0.14 | 0.00 | 83 | 1014.3 |
| 20260504005531 | 47 | 0 | 0.0 | 0.0 | 0.00 | 0.18 | 0.00 | 83 | 1014.2 |
| 20260504005032 | 48 | 0 | 0.0 | 0.0 | 0.00 | 0.18 | 0.00 | 83 | 1014.2 |
| 20260504004618 | 48 | 0 | 0.0 | 0.0 | 0.00 | 0.18 | 0.00 | 83 | 1014.2 |
| 20260504004027 | 48 | 0 | 0.0 | 1.0 | 0.00 | 0.18 | 0.00 | 83 | 1014.2 |
| 20260504003532 | 48 | 0 | 0.0 | 1.0 | 0.00 | 0.18 | 0.00 | 83 | 1014.3 |
| 20260504003040 | 48 | 0 | 0.0 | 1.0 | 0.00 | 0.18 | 0.00 | 82 | 1014.2 |
| 20260504002531 | 47 | 0 | 0.0 | 0.0 | 0.00 | 0.18 | 0.00 | 82 | 1014.3 |
| 20260504002031 | 48 | 0 | 0.0 | 0.0 | 0.00 | 0.18 | 0.00 | 82 | 1014.3 |
| 20260504001615 | 48 | 0 | 0.0 | 0.0 | 0.00 | 0.18 | 0.00 | 82 | 1014.3 |
| 20260504001033 | 47 | 0 | 0.0 | 0.0 | 0.00 | 0.18 | 0.00 | 82 | 1014.3 |
| 20260504000534 | 47 | 0 | 0.0 | 0.0 | 0.00 | 0.18 | 0.00 | 82 | 1014.3 |
| 20260504000045 | 47 | 0 | 0.0 | 0.0 | 0.00 | 0.18 | 0.00 | 82 | 1014.3 |
| 20260503235531 | 48 | 0 | 0.0 | 0.0 | 0.00 | 0.19 | 0.00 | 82 | 1014.3 |
| 20260503235031 | 48 | 0 | 0.0 | 0.0 | 0.00 | 0.19 | 0.00 | 82 | 1014.3 |
| 20260503234539 | 48 | 0 | 0.0 | 0.0 | 0.00 | 0.19 | 0.00 | 82 | 1014.2 |
| 20260503234031 | 48 | 0 | 0.0 | 0.0 | 0.00 | 0.19 | 0.00 | 82 | 1014.3 |
| 20260503233529 | 48 | 0 | 0.0 | 0.0 | 0.00 | 0.19 | 0.00 | 82 | 1014.2 |
| 20260503233041 | 47 | 0 | 0.0 | 0.0 | 0.00 | 0.19 | 0.00 | 82 | 1014.2 |
| 20260503232527 | 47 | 0 | 0.0 | 0.0 | 0.00 | 0.19 | 0.00 | 82 | 1014.3 |
| 20260503232031 | 47 | 0 | 0.0 | 1.0 | 0.00 | 0.19 | 0.00 | 82 | 1014.3 |
| 20260503231543 | 47 | 0 | 0.0 | 1.0 | 0.00 | 0.19 | 0.00 | 82 | 1014.3 |
| 20260503231032 | 47 | 0 | 0.0 | 1.0 | 0.00 | 0.19 | 0.00 | 82 | 1014.3 |
| 20260503230531 | 47 | 0 | 0.0 | 1.0 | 0.00 | 0.19 | 0.00 | 82 | 1014.3 |
| 20260503230105 | 47 | 0 | 0.0 | 1.0 | 0.00 | 0.19 | 0.00 | 82 | 1014.4 |
| 20260503225531 | 47 | 0 | 0.0 | 0.0 | 0.00 | 0.37 | 0.19 | 81 | 1014.3 |
| 20260503225034 | 47 | 0 | 0.0 | 0.0 | 0.00 | 0.37 | 0.19 | 81 | 1014.3 |
| 20260503224540 | 47 | 0 | 0.0 | 0.0 | 0.00 | 0.37 | 0.19 | 81 | 1014.3 |
| 20260503224034 | 47 | 0 | 0.0 | 0.0 | 0.00 | 0.37 | 0.19 | 81 | 1014.2 |
| 20260503223528 | 48 | 0 | 0.0 | 0.0 | 0.00 | 0.37 | 0.19 | 80 | 1014.1 |
| 20260503223109 | 48 | 0 | 0.0 | 0.0 | 0.00 | 0.37 | 0.19 | 80 | 1014.2 |
| 20260503222531 | 48 | 0 | 0.0 | 0.0 | 0.00 | 0.37 | 0.19 | 80 | 1014.1 |
| 20260503222033 | 48 | 0 | 0.0 | 1.0 | 0.00 | 0.37 | 0.19 | 80 | 1014.0 |
| 20260503221545 | 48 | 0 | 0.0 | 1.0 | 0.00 | 0.37 | 0.19 | 80 | 1014.1 |
| 20260503221031 | 48 | 0 | 0.0 | 1.0 | 0.00 | 0.37 | 0.19 | 80 | 1014.1 |
| 20260503220531 | 48 | 98 | 0.0 | 1.0 | 0.00 | 0.37 | 0.19 | 80 | 1014.1 |
| 20260503220048 | 48 | 0 | 0.0 | 0.0 | 0.00 | 0.37 | 0.19 | 80 | 1014.2 |
| 20260503215530 | 48 | 0 | 0.0 | 1.0 | 0.00 | 0.51 | 0.19 | 79 | 1014.2 |
| 20260503215031 | 48 | 0 | 0.0 | 1.0 | 0.00 | 0.51 | 0.19 | 79 | 1014.2 |
| 20260503214540 | 49 | 98 | 0.0 | 1.0 | 0.00 | 0.51 | 0.19 | 79 | 1014.3 |
| 20260503214035 | 49 | 0 | 0.0 | 1.0 | 0.00 | 0.51 | 0.19 | 79 | 1014.3 |
| 20260503213528 | 49 | 0 | 0.0 | 0.0 | 0.00 | 0.51 | 0.19 | 79 | 1014.2 |
| 20260503213037 | 49 | 0 | 0.0 | 0.0 | 0.00 | 0.51 | 0.19 | 79 | 1014.1 |
| 20260503212532 | 49 | 0 | 0.0 | 0.0 | 0.00 | 0.51 | 0.19 | 79 | 1014.2 |
| 20260503212032 | 49 | 0 | 0.0 | 0.0 | 0.00 | 0.51 | 0.19 | 79 | 1014.2 |
| 20260503211537 | 49 | 0 | 0.0 | 0.0 | 0.00 | 0.51 | 0.19 | 78 | 1014.2 |
| 20260503211031 | 49 | 0 | 0.0 | 0.0 | 0.00 | 0.51 | 0.19 | 78 | 1014.2 |
| 20260503210527 | 49 | 0 | 0.0 | 0.0 | 0.00 | 0.51 | 0.19 | 78 | 1014.2 |
| 20260503210045 | 49 | 0 | 0.0 | 0.0 | 0.00 | 0.51 | 0.19 | 78 | 1014.2 |
| 20260503205531 | 49 | 0 | 0.0 | 1.0 | 0.00 | 0.51 | 0.19 | 78 | 1014.2 |
| 20260503205031 | 49 | 0 | 0.0 | 1.0 | 0.00 | 0.51 | 0.19 | 77 | 1014.2 |
| 20260503204543 | 50 | 0 | 0.0 | 1.0 | 0.00 | 0.51 | 0.19 | 77 | 1014.1 |
| 20260503204031 | 50 | 0 | 0.0 | 1.0 | 0.00 | 0.51 | 0.19 | 77 | 1014.2 |
| 20260503203531 | 50 | 0 | 0.0 | 0.0 | 0.00 | 0.51 | 0.19 | 77 | 1014.1 |
| 20260503203052 | 50 | 0 | 0.0 | 0.0 | 0.00 | 0.51 | 0.19 | 76 | 1014.1 |
| 20260503202528 | 50 | 0 | 0.0 | 1.0 | 0.00 | 0.51 | 0.19 | 76 | 1014.2 |
| 20260503202028 | 50 | 0 | 0.0 | 2.0 | 0.00 | 0.51 | 0.19 | 76 | 1014.1 |
| 20260503201545 | 50 | 0 | 0.0 | 2.0 | 0.00 | 0.51 | 0.19 | 76 | 1014.0 |
| 20260503201031 | 50 | 98 | 0.0 | 0.0 | 0.00 | 0.51 | 0.19 | 76 | 1013.9 |
| 20260503200531 | 50 | 0 | 0.0 | 2.0 | 0.00 | 0.51 | 0.19 | 75 | 1013.8 |
| 20260503200037 | 50 | 0 | 0.0 | 2.0 | 0.00 | 0.51 | 0.19 | 75 | 1013.8 |
| 20260503195531 | 50 | 0 | 0.0 | 3.0 | 0.00 | 0.51 | 0.19 | 75 | 1013.8 |
| 20260503195031 | 50 | 0 | 0.0 | 3.0 | 0.00 | 0.51 | 0.19 | 74 | 1013.7 |
| 20260503194545 | 50 | 86 | 1.0 | 3.0 | 0.00 | 0.51 | 0.19 | 74 | 1013.7 |
| 20260503194031 | 50 | 50 | 1.0 | 4.0 | 0.00 | 0.51 | 0.19 | 74 | 1013.6 |
| 20260503193531 | 51 | 66 | 1.0 | 4.0 | 0.00 | 0.51 | 0.19 | 74 | 1013.6 |
| 20260503193043 | 51 | 63 | 1.0 | 4.0 | 0.00 | 0.51 | 0.19 | 73 | 1013.5 |
| 20260503192531 | 51 | 68 | 0.0 | 4.0 | 0.00 | 0.51 | 0.19 | 74 | 1013.6 |
| 20260503192033 | 51 | 92 | 2.0 | 4.0 | 0.00 | 0.51 | 0.19 | 73 | 1013.4 |
| 20260503191546 | 51 | 82 | 2.0 | 6.0 | 0.00 | 0.51 | 0.19 | 73 | 1013.5 |
| 20260503191031 | 51 | 86 | 2.0 | 6.0 | 0.00 | 0.51 | 0.19 | 73 | 1013.5 |
| 20260503190533 | 51 | 126 | 3.0 | 6.0 | 0.00 | 0.51 | 0.19 | 73 | 1013.4 |
| 20260503190042 | 51 | 119 | 2.0 | 6.0 | 0.00 | 0.51 | 0.19 | 73 | 1013.5 |
| 20260503185530 | 51 | 92 | 2.0 | 4.0 | 0.00 | 0.51 | 0.19 | 73 | 1013.4 |
| 20260503185034 | 51 | 87 | 2.0 | 6.0 | 0.00 | 0.51 | 0.19 | 73 | 1013.5 |
| 20260503184537 | 52 | 58 | 2.0 | 6.0 | 0.00 | 0.51 | 0.19 | 73 | 1013.5 |
| 20260503184030 | 52 | 104 | 2.0 | 7.0 | 0.00 | 0.51 | 0.19 | 73 | 1013.4 |
| 20260503183534 | 52 | 84 | 2.0 | 7.0 | 0.00 | 0.51 | 0.19 | 72 | 1013.4 |
| 20260503183040 | 52 | 90 | 2.0 | 6.0 | 0.00 | 0.51 | 0.19 | 72 | 1013.2 |
| 20260503182531 | 52 | 67 | 2.0 | 6.0 | 0.00 | 0.51 | 0.19 | 72 | 1013.2 |
| 20260503182031 | 53 | 98 | 1.0 | 5.0 | 0.00 | 0.51 | 0.19 | 73 | 1013.2 |
| 20260503181541 | 52 | 67 | 2.0 | 5.0 | 0.00 | 0.51 | 0.19 | 73 | 1013.3 |
| 20260503181031 | 52 | 91 | 2.0 | 6.0 | 0.00 | 0.51 | 0.19 | 73 | 1013.2 |
| 20260503180531 | 52 | 75 | 2.0 | 7.0 | 0.00 | 0.51 | 0.19 | 73 | 1013.2 |
| 20260503180053 | 52 | 70 | 2.0 | 7.0 | 0.00 | 0.51 | 0.19 | 73 | 1013.3 |
| 20260503175530 | 52 | 77 | 3.0 | 6.0 | 0.00 | 0.51 | 0.19 | 73 | 1013.2 |
| 20260503175030 | 52 | 89 | 3.0 | 7.0 | 0.00 | 0.51 | 0.19 | 73 | 1013.3 |
| 20260503174546 | 52 | 64 | 3.0 | 7.0 | 0.00 | 0.51 | 0.19 | 74 | 1013.3 |
| 20260503174030 | 52 | 77 | 4.0 | 8.0 | 0.00 | 0.51 | 0.19 | 74 | 1013.3 |
| 20260503173530 | 52 | 74 | 4.0 | 8.0 | 0.00 | 0.51 | 0.19 | 73 | 1013.3 |
| 20260503173040 | 52 | 75 | 4.0 | 8.0 | 0.00 | 0.51 | 0.19 | 73 | 1013.3 |
| 20260503172529 | 52 | 101 | 3.0 | 7.0 | 0.00 | 0.51 | 0.19 | 73 | 1013.2 |
| 20260503172030 | 52 | 79 | 4.0 | 8.0 | 0.00 | 0.51 | 0.19 | 72 | 1013.2 |
| 20260503171539 | 53 | 72 | 4.0 | 8.0 | 0.00 | 0.51 | 0.19 | 73 | 1013.3 |
| 20260503171031 | 53 | 77 | 4.0 | 8.0 | 0.00 | 0.51 | 0.19 | 72 | 1013.2 |
| 20260503170531 | 53 | 91 | 5.0 | 8.0 | 0.00 | 0.51 | 0.19 | 71 | 1013.3 |